Wind_Speed
19 18 18 16 14 13 13 13 13 13 12 11 10 9 8 8 7 7 6 5 4 4 5 7 7 6 6 6 6 6 6 6 5 4 4 6 6 6 7 7 6 7 8 8 9 10 11 11 12 13 14 15 15 15 14 13 13 13 14 14 13 13 13 14 14 14 14 14 14 14 14 13 13 13 14 14 14 14 13 13 13 14 13 12 13
18 17 17 16 14 14 15 13 12 11 10 10 9 8 6 6 5 5 4 4 3 4 6 6 5 4 4 4 4 4 4 4 4 3 3 5 4 4 5 6 6 7 7 8 9 10 11 12 12 13 14 16 15 15 14 13 12 12 13 13 13 13 13 13 13 14 14 14 14 14 14 13 13 13 13 14 14 14 13 13 13 13 13 12 12
17 17 17 16 15 15 14 13 12 10 9 8 8 6 5 4 3 3 3 3 3 4 5 4 3 2 3 3 3 3 3 3 3 2 2 3 4 4 4 5 6 6 7 8 10 10 11 12 12 13 14 16 15 14 14 13 11 11 12 13 13 13 13 13 13 13 13 13 13 13 13 13 13 13 13 14 13 14 14 13 12 12 13 12 11
16 16 16 16 15 13 12 11 10 9 8 7 7 5 4 2 2 3 3 3 3 4 4 2 2 2 3 3 3 2 2 2 3 2 2 3 4 4 3 5 6 6 7 10 11 11 11 11 12 13 14 15 15 14 13 13 11 11 12 12 13 13 12 12 13 13 13 13 13 13 13 13 12 12 12 13 13 13 13 13 12 12 12 11 10
16 16 16 15 14 12 10 9 8 7 6 6 5 4 3 2 2 4 3 3 3 2 2 2 2 1 2 2 2 1 1 2 3 3 3 4 5 5 4 5 6 6 7 10 11 11 11 12 13 14 14 14 14 13 13 12 11 11 11 12 12 12 12 12 12 13 13 12 12 12 12 12 12 12 12 12 12 12 12 12 12 11 10 10 8
15 15 15 13 12 10 9 7 6 6 5 5 4 3 3 3 3 4 4 3 3 2 2 2 1 0 0 0 1 1 1 2 4 4 4 5 7 7 6 4 5 6 7 9 11 11 12 13 13 14 14 14 13 13 12 12 11 11 11 12 12 11 11 12 12 12 11 11 11 12 12 11 11 11 11 11 11 11 12 11 10 9 8 8 7
15 15 14 13 11 10 8 6 5 4 4 4 3 3 3 4 4 5 6 4 4 4 4 2 1 0 1 2 2 2 2 3 4 5 5 6 7 8 8 7 7 8 9 11 11 11 13 13 13 13 14 14 13 12 12 11 11 11 11 11 11 11 11 12 12 10 9 10 10 11 11 11 11 10 10 10 10 10 10 9 8 8 7 7 7
16 15 14 13 11 10 8 5 4 4 3 3 3 3 4 5 5 7 6 3 4 5 5 5 3 2 2 2 2 3 4 3 5 6 6 6 5 6 8 9 10 10 11 12 13 12 13 14 13 13 13 13 12 12 11 10 10 10 11 10 10 11 11 12 11 9 8 9 9 10 11 9 9 9 8 9 9 9 9 8 7 7 7 7 7
16 15 14 13 12 9 7 5 4 4 4 4 4 4 5 6 7 8 6 4 5 5 6 5 4 4 4 4 4 5 5 4 5 5 6 6 5 5 6 9 9 11 12 13 13 13 13 14 13 12 12 12 12 12 11 10 9 10 11 10 10 11 11 11 10 9 8 8 8 9 10 8 8 7 7 7 7 7 8 7 6 7 7 7 7
16 14 12 11 10 8 7 5 4 5 5 5 5 5 6 8 9 9 6 4 5 5 6 6 5 4 4 5 6 6 6 6 7 7 7 7 7 6 7 9 10 11 12 13 14 13 14 14 13 13 12 12 12 12 11 11 10 10 11 11 10 10 10 10 9 8 7 7 7 8 7 7 6 6 6 6 6 6 7 7 7 8 8 8 9
15 12 10 9 8 8 6 4 5 6 6 5 5 6 8 10 10 9 6 4 4 4 5 6 5 4 5 6 7 7 7 8 8 9 9 9 9 9 10 11 12 12 12 13 14 13 14 14 13 13 12 13 13 12 12 11 10 10 10 10 9 9 9 10 9 9 9 7 7 7 6 6 6 6 6 6 6 6 7 8 8 9 9 10 11
12 11 9 8 8 7 5 5 5 6 6 5 6 7 10 12 11 9 7 5 4 4 5 6 6 6 7 7 8 8 9 9 10 11 10 11 11 11 13 13 14 14 13 13 13 13 13 13 13 12 12 13 12 12 11 11 10 9 9 9 9 9 10 10 9 10 9 7 6 6 6 6 6 6 6 6 7 8 9 9 10 11 11 13 14
11 9 8 8 7 6 5 5 5 6 6 6 7 8 11 12 10 9 7 6 5 6 7 8 8 8 8 9 9 10 10 11 11 11 11 12 12 14 14 14 15 15 14 13 13 13 12 12 12 12 12 12 12 12 10 10 9 9 9 9 9 9 10 10 9 9 8 7 5 5 6 6 6 7 6 7 8 9 11 11 12 13 14 15 16
10 9 8 8 7 6 5 6 6 6 7 7 8 10 13 13 10 9 8 7 7 8 9 10 10 10 10 11 12 13 13 12 12 12 12 12 13 15 15 15 15 15 14 13 13 12 11 11 12 12 12 12 12 11 10 9 9 9 10 10 10 9 9 10 9 8 7 5 4 5 6 6 7 7 7 9 10 12 13 14 15 16 16 17 17
10 8 7 7 7 6 6 6 7 8 9 10 11 13 15 13 11 10 9 9 10 10 11 12 12 13 14 14 15 15 14 13 14 14 14 14 14 15 16 16 15 14 14 13 13 12 11 11 12 13 12 12 13 12 11 11 11 11 11 10 10 9 8 9 9 7 7 6 5 6 7 8 9 9 10 11 13 14 15 16 17 17 18 18 17
10 8 7 7 7 6 6 7 8 9 10 11 13 15 15 13 13 12 11 12 13 13 13 14 14 16 16 16 17 17 16 16 17 16 16 16 15 15 15 15 14 14 13 13 13 12 12 12 12 12 12 13 14 13 12 12 11 11 10 10 10 10 9 9 10 8 7 7 6 7 9 10 10 11 12 13 15 16 17 18 18 18 18 17 17
9 8 8 8 7 7 7 7 8 9 10 12 14 15 15 14 14 13 12 13 14 15 15 15 16 17 18 18 19 18 17 17 18 18 17 16 15 15 15 14 13 14 14 13 13 13 13 12 13 13 13 13 13 13 12 11 11 10 10 10 10 12 10 9 10 9 7 7 7 8 11 11 12 13 14 16 17 18 19 18 18 18 17 17 16
9 8 8 8 8 8 7 7 7 9 11 14 15 16 16 15 13 13 13 13 15 16 17 17 18 19 20 20 20 19 18 18 18 17 17 16 15 15 14 13 13 14 14 13 13 13 13 13 13 13 13 13 13 12 12 10 10 11 11 11 12 13 11 10 12 11 9 8 8 10 12 13 14 15 16 18 19 19 19 18 18 17 16 16 16
8 9 8 8 8 8 8 7 8 8 12 15 15 17 16 15 15 14 14 14 16 17 17 18 19 20 21 21 21 20 19 18 17 17 17 17 16 15 14 13 13 13 14 13 13 13 13 13 13 13 13 13 12 12 11 10 10 11 12 13 13 13 13 13 13 12 11 10 10 12 13 15 16 18 18 19 19 19 18 17 17 16 16 15 15
8 9 8 8 8 8 8 8 9 8 13 17 16 17 17 16 17 16 16 16 17 18 18 19 20 20 21 20 20 20 19 18 17 17 17 17 16 14 14 13 13 13 14 14 13 13 13 13 13 13 12 12 12 12 11 10 11 12 13 13 12 13 13 13 13 12 11 11 12 14 16 17 18 19 19 19 18 17 17 16 16 15 15 15 15
7 8 8 8 8 8 7 8 11 11 13 17 17 16 18 18 18 18 17 18 19 20 20 20 21 21 20 20 20 19 19 19 18 18 17 16 15 15 15 14 14 14 14 14 13 12 12 12 12 12 12 12 11 11 11 10 12 12 12 13 13 14 14 14 14 13 12 13 15 17 18 19 19 19 18 18 17 16 16 15 15 15 15 15 14
8 7 7 7 8 8 7 6 10 14 13 15 19 18 18 19 20 20 18 18 19 20 21 21 21 21 20 20 20 19 18 18 18 17 16 15 14 15 16 16 15 15 15 14 13 12 12 12 12 12 12 12 11 11 12 12 13 13 12 12 13 14 14 15 14 14 14 16 17 18 19 19 18 18 17 16 16 16 15 15 15 15 14 14 13
8 7 7 7 7 7 8 7 7 13 14 14 20 21 19 19 20 20 20 19 19 20 21 22 22 21 20 20 19 19 19 18 18 17 16 16 15 16 18 18 17 16 16 15 13 12 12 13 12 12 12 11 11 11 12 13 15 13 11 12 13 14 14 14 15 15 16 17 18 19 19 18 18 17 16 16 16 16 15 15 14 14 13 13 12
9 8 8 7 7 7 9 9 7 11 13 13 17 21 21 19 19 20 20 19 20 20 21 22 22 21 20 19 18 18 19 19 19 17 17 17 17 18 19 19 18 17 16 15 13 13 13 13 13 12 11 10 10 10 10 11 12 11 11 12 13 14 15 15 16 17 17 18 19 19 18 17 17 16 16 15 15 15 14 13 13 12 12 11 11
10 9 9 8 8 8 9 10 9 10 12 13 14 18 21 20 18 20 21 19 19 21 20 21 21 21 21 20 19 18 19 19 19 18 17 17 17 18 18 18 18 17 15 13 13 13 13 12 12 11 11 11 9 9 9 10 11 11 12 13 14 15 16 16 17 18 18 18 18 18 17 17 16 16 15 14 14 13 12 12 11 11 11 11 11
10 10 10 10 9 10 10 10 11 11 12 13 14 15 18 20 19 19 20 19 19 19 19 19 19 20 20 19 19 18 18 18 18 18 17 17 17 16 16 16 16 14 12 11 12 13 11 11 11 10 11 12 11 10 10 11 13 13 13 14 15 16 17 17 17 18 18 17 17 17 17 16 15 14 13 13 12 11 11 11 10 10 11 11 12
11 11 10 11 11 10 10 10 11 12 13 13 13 14 16 18 19 19 20 19 19 18 18 17 17 19 19 18 18 18 17 16 16 16 16 16 15 15 15 15 14 13 11 10 11 12 11 10 12 11 12 13 11 11 11 12 13 14 14 15 16 17 18 18 17 17 17 16 16 16 16 15 14 13 12 12 11 10 10 10 11 11 12 13 13
11 12 12 12 12 11 11 11 12 13 13 12 13 14 15 16 17 19 19 19 19 18 17 16 16 17 17 17 17 17 16 15 15 15 14 14 14 13 13 13 13 12 11 11 11 12 12 13 14 13 12 12 11 12 12 12 14 16 16 17 17 18 18 18 17 17 17 16 16 15 14 13 12 12 11 11 10 11 11 11 12 13 13 14 14
12 12 13 13 13 12 12 13 13 13 12 12 13 13 14 14 16 17 18 18 18 17 16 16 16 16 16 16 16 15 15 14 14 14 14 13 14 13 12 12 12 11 11 12 12 13 14 14 16 15 13 12 13 13 12 12 14 15 17 18 18 17 17 17 16 16 16 15 14 13 13 12 12 11 11 11 11 11 12 13 13 14 14 15 15
13 13 13 14 14 14 14 14 14 13 12 12 12 13 13 14 14 16 16 18 18 17 16 15 15 15 15 16 16 15 14 13 13 14 14 14 14 13 13 12 11 11 11 11 12 12 13 14 15 16 14 13 13 13 13 12 13 16 17 18 18 17 16 16 16 15 14 13 12 12 12 12 12 12 12 12 12 13 13 14 14 15 16 16 17
13 14 14 15 15 15 15 15 14 14 13 12 12 13 13 13 14 14 15 17 17 16 16 15 15 15 15 15 15 14 13 13 13 13 14 14 13 13 12 12 11 11 11 11 11 11 12 13 14 15 15 14 13 13 14 13 13 15 16 17 18 16 15 15 14 13 12 11 11 12 12 13 13 12 12 12 13 14 14 15 16 17 18 18 18
13 14 14 15 15 15 15 15 15 14 14 13 13 13 13 13 13 14 14 15 15 15 15 15 14 14 14 14 14 13 13 13 13 13 13 13 13 13 12 11 11 10 10 11 11 11 12 13 14 15 15 15 14 15 14 13 14 14 14 16 16 14 13 14 13 11 11 10 10 12 12 13 13 12 13 13 14 15 15 17 18 19 19 19 19
13 14 14 15 15 15 15 15 15 14 14 14 13 13 13 13 12 13 14 14 14 14 14 15 15 15 14 14 13 13 12 12 12 13 13 13 12 12 11 10 11 11 11 12 12 12 13 14 14 15 16 15 14 15 12 11 14 14 12 14 14 13 12 13 12 10 10 10 11 12 12 12 13 14 14 15 15 16 16 17 19 20 19 19 19
14 14 14 14 15 15 15 15 15 14 14 14 13 14 13 12 12 13 14 13 13 13 14 14 14 14 14 13 13 12 12 12 12 13 13 13 11 11 11 10 10 11 12 12 13 13 12 14 15 14 16 15 13 14 12 11 13 13 12 13 12 12 12 11 11 10 10 10 10 11 12 11 13 14 15 15 16 16 17 18 19 20 19 19 19
14 14 14 14 14 15 14 14 14 14 14 14 14 14 14 13 13 13 13 13 14 14 13 13 13 13 13 13 13 13 12 12 12 12 13 12 12 11 10 10 9 10 12 12 13 13 12 13 15 14 14 15 13 13 13 12 13 13 12 13 11 10 11 10 11 11 10 11 11 11 12 11 12 14 14 15 18 18 18 19 19 19 18 18 17
14 14 14 14 14 14 14 14 14 14 14 14 13 14 14 14 13 14 14 14 14 14 14 13 12 12 12 13 13 13 12 12 12 11 12 12 12 11 10 9 9 9 11 11 12 13 12 12 13 12 14 16 12 10 12 12 14 13 11 11 10 10 10 9 10 9 8 11 11 11 13 12 12 14 14 14 17 19 19 18 18 17 17 16 16
14 14 14 14 14 13 14 14 14 14 14 13 13 13 13 13 14 14 14 14 14 14 14 14 13 13 12 13 12 12 12 11 11 10 11 12 11 11 10 9 9 9 10 10 10 12 12 12 12 11 13 15 12 10 12 11 11 11 9 9 8 9 9 8 10 9 8 11 12 11 13 14 13 13 14 15 15 17 18 18 17 17 16 16 15
14 14 14 14 14 13 13 13 14 13 13 13 13 13 13 13 13 13 13 14 14 13 13 13 13 13 12 12 12 11 11 10 9 9 9 11 10 10 10 9 8 8 9 10 10 10 10 11 12 11 11 13 14 13 13 12 9 6 6 8 7 8 9 8 10 10 10 11 11 12 13 13 13 13 13 14 13 13 15 16 16 17 16 15 15
15 15 15 14 14 13 13 13 13 13 13 12 13 13 12 12 12 12 11 12 12 11 11 11 11 12 11 11 11 11 10 9 9 9 9 10 10 9 9 8 8 7 8 9 10 9 9 10 10 11 10 11 13 14 13 13 11 6 7 9 8 7 8 8 10 10 10 10 9 10 12 12 12 13 12 11 11 11 12 13 13 15 15 15 14
16 15 15 14 14 13 13 13 13 13 13 13 13 13 12 12 12 12 11 10 10 10 10 9 10 12 11 10 10 10 10 9 9 9 9 9 9 9 9 8 7 7 7 8 10 9 9 10 9 10 10 10 12 12 11 11 11 9 9 9 7 7 7 7 9 10 9 9 9 9 10 10 10 11 11 11 10 9 10 10 10 11 12 13 12
16 16 15 15 14 14 13 14 14 14 13 13 13 13 13 13 12 12 11 10 9 9 9 8 9 11 10 9 9 9 9 9 9 9 9 9 9 8 8 7 7 7 7 7 8 8 8 9 9 10 10 11 11 12 11 11 10 9 8 8 6 6 7 6 9 11 7 8 10 8 7 8 9 10 10 9 7 7 8 7 7 9 10 9 10
16 16 15 15 14 14 14 14 14 14 14 13 13 13 13 13 13 12 11 10 9 9 9 8 9 10 9 9 9 9 9 9 9 9 9 9 8 8 8 7 7 7 7 7 7 7 7 7 8 9 10 10 10 11 12 11 10 8 6 7 6 5 5 5 7 8 5 4 7 8 6 6 8 7 5 7 6 7 7 5 5 8 8 6 7
15 15 15 14 15 15 15 15 15 15 14 13 13 13 13 13 13 13 12 11 10 10 9 8 9 9 9 9 9 9 8 8 8 9 9 8 8 8 8 8 7 7 6 6 6 6 6 6 7 8 9 10 9 10 11 9 8 8 6 6 5 4 4 5 7 8 5 2 4 8 4 2 6 5 3 7 6 6 6 5 6 6 7 7 8
16 16 15 14 14 15 15 15 15 15 14 14 13 13 12 11 10 11 11 11 10 10 9 7 8 9 8 8 8 8 8 8 8 8 8 8 8 9 9 9 8 7 6 6 5 5 6 6 6 7 8 9 9 9 9 8 9 10 8 6 6 4 5 6 6 7 8 3 3 6 2 0 4 6 5 6 5 6 7 6 7 7 8 8 8
15 16 15 14 14 14 15 15 15 15 14 14 13 13 12 11 10 10 10 10 9 10 9 8 7 8 8 7 7 7 7 7 7 7 8 8 8 8 9 9 9 8 6 5 4 4 5 5 6 7 7 7 9 10 8 7 9 9 7 7 7 6 5 6 4 3 4 1 2 3 2 2 2 5 6 4 5 7 8 7 8 8 9 9 8
15 15 15 15 15 15 15 15 16 15 14 14 13 13 13 13 13 12 12 11 11 11 10 9 8 8 8 8 7 7 7 7 7 7 7 7 7 8 9 9 9 8 6 5 5 5 5 5 5 6 6 6 8 10 9 8 8 8 7 7 6 5 4 4 3 2 0 1 1 2 3 3 2 4 4 3 4 7 8 7 7 7 7 9 9
15 15 15 15 15 16 16 16 16 15 14 13 13 13 13 13 14 14 13 12 12 12 11 10 10 9 9 8 8 7 7 6 6 7 6 7 7 8 8 8 8 8 7 7 7 7 7 6 5 5 6 6 7 8 9 9 9 8 8 8 7 6 5 3 3 3 1 2 1 0 3 2 3 5 5 3 2 5 7 6 7 7 6 9 10
15 15 16 16 16 16 17 16 16 15 14 13 13 13 13 14 14 14 13 13 13 12 11 10 9 9 9 9 8 8 7 6 6 7 7 7 8 8 8 8 8 8 8 8 8 7 7 6 6 6 5 6 6 7 8 9 10 10 9 9 8 7 5 4 3 3 2 1 1 2 1 0 3 3 3 6 5 7 8 7 7 7 7 9 10
16 16 16 16 16 16 17 17 16 15 14 14 13 13 14 15 15 14 13 13 13 12 11 11 10 9 9 9 8 8 7 7 6 7 7 7 7 8 8 8 8 8 8 8 8 8 7 7 7 6 5 4 5 6 7 9 10 11 10 9 8 7 7 5 4 4 4 3 2 3 4 4 4 2 1 6 8 8 9 10 9 7 8 9 10
17 17 17 16 16 16 17 17 17 16 15 14 14 14 14 15 15 13 12 11 12 12 11 11 10 9 9 9 9 8 8 7 7 7 7 7 7 7 8 9 8 8 8 8 8 8 7 7 7 7 6 6 5 5 5 7 9 10 10 10 9 8 7 6 6 6 5 4 3 4 6 5 5 5 4 6 8 8 9 10 11 11 11 12 13
18 18 18 17 17 17 17 17 17 16 16 15 15 15 15 15 14 12 11 11 11 11 11 10 10 10 10 9 9 9 8 8 8 7 7 7 7 7 8 8 8 8 9 8 8 8 8 8 8 8 8 7 7 6 5 6 7 9 10 9 9 8 7 7 8 8 8 7 6 5 6 6 6 7 7 7 8 10 9 10 11 12 13 13 13
Wind_Direction
136 134 132 132 133 137 131 128 124 123 122 120 119 112 107 103 102 102 101 102 101 85 69 70 69 63 59 63 68 73 90 99 98 101 93 87 86 88 93 91 88 84 83 85 87 95 98 98 100 104 108 111 117 120 119 117 115 112 111 109 103 95 90 88 87 87 86 85 85 86 88 90 94 95 94 93 91 90 88 86 87 87 85 84 84
137 138 136 136 138 140 135 131 127 125 122 119 115 108 105 104 107 107 104 99 83 68 63 61 57 59 66 73 77 75 88 97 100 102 99 96 95 94 93 96 98 96 90 86 92 101 103 102 101 104 109 113 118 121 121 120 118 116 115 113 106 98 91 89 87 86 86 85 84 85 87 89 91 92 92 92 91 90 87 84 83 85 84 82 83
135 137 135 137 139 138 134 133 132 129 125 121 115 111 110 107 107 94 79 65 54 51 50 50 38 30 60 76 82 78 86 96 102 102 115 113 108 98 91 100 106 109 104 98 101 106 106 105 104 107 111 115 120 122 123 121 119 118 117 116 110 101 93 90 89 88 87 85 84 85 86 86 87 88 89 90 91 90 88 84 81 81 82 82 81
134 136 134 136 136 133 132 131 131 128 128 125 120 118 108 96 89 69 43 33 40 36 22 19 10 17 55 73 84 75 82 102 112 126 161 148 127 116 113 115 120 125 119 113 110 111 110 106 107 109 112 116 121 124 124 122 120 117 114 115 110 102 97 93 90 90 88 86 85 85 85 85 85 85 87 89 90 91 90 87 84 82 83 81 75
133 136 135 136 132 130 131 130 129 128 126 118 115 108 95 95 78 62 48 40 41 27 1 11 33 42 59 66 102 107 108 141 137 151 184 165 143 141 144 133 131 133 122 114 113 114 112 110 111 110 113 117 121 125 125 124 121 115 111 111 109 104 99 93 88 87 87 88 88 87 86 85 84 85 87 87 87 88 87 86 84 84 83 80 72
132 135 135 134 132 133 132 134 129 120 113 105 104 98 105 100 74 66 60 42 25 23 19 23 32 23 71 116 170 165 176 182 162 169 184 166 152 149 153 145 129 127 120 111 110 112 111 112 114 112 114 117 120 123 125 126 123 118 112 111 109 105 100 93 87 84 83 86 89 87 85 85 84 84 88 86 85 83 82 82 82 83 82 75 67
133 135 135 135 133 134 130 127 117 102 94 93 92 86 90 77 68 70 66 45 38 54 56 56 110 183 185 185 193 171 161 172 172 175 172 169 164 156 154 139 121 119 118 114 113 112 110 112 114 113 114 115 118 121 125 126 123 120 115 113 111 106 101 96 91 86 85 85 87 88 85 85 86 84 86 86 84 82 81 83 84 82 76 65 58
135 137 136 136 135 132 127 124 116 105 94 83 82 78 73 70 74 74 70 62 63 77 76 78 113 136 136 141 165 158 143 154 169 169 163 168 170 158 149 132 122 123 120 118 116 114 111 111 113 113 113 115 115 116 119 121 122 121 118 118 117 112 104 99 96 89 86 86 85 87 88 85 84 83 82 84 84 83 82 78 80 80 68 61 60
134 137 136 137 135 131 127 126 120 114 109 97 94 94 88 78 78 82 86 88 82 92 97 103 119 125 131 138 147 147 145 153 155 144 142 152 157 151 134 121 120 121 119 118 117 115 114 112 112 110 110 112 112 112 115 118 121 122 120 120 120 118 109 101 96 91 84 84 84 84 88 87 82 83 81 80 81 80 81 77 73 73 66 64 68
132 134 135 135 130 124 118 118 112 104 103 98 93 89 85 76 76 86 94 90 87 105 121 129 129 123 132 141 143 143 142 142 134 127 129 138 140 134 124 122 120 120 121 120 118 117 116 113 110 107 106 107 107 109 114 118 120 122 121 122 123 120 110 98 93 92 87 88 93 90 89 94 88 82 79 76 78 79 83 85 77 72 72 74 79
132 131 131 129 120 113 109 107 105 100 99 93 88 82 79 76 78 88 92 87 95 121 140 137 135 138 134 136 141 138 131 129 128 129 130 128 125 123 124 126 126 126 126 123 120 118 117 114 109 107 106 105 105 106 110 113 116 119 119 121 120 115 104 94 89 86 85 84 89 93 91 94 90 80 77 75 79 82 83 84 79 79 83 87 88
126 125 128 124 116 109 105 104 101 102 100 93 88 80 76 77 80 87 90 94 113 134 134 121 120 129 130 128 130 130 124 123 125 126 125 123 125 124 124 127 130 131 130 127 124 122 118 114 109 108 107 105 103 103 104 107 111 114 114 115 112 107 97 87 85 83 85 85 85 94 93 89 86 76 71 76 81 84 85 84 86 91 94 94 93
121 125 129 120 114 108 106 103 102 99 91 86 84 77 76 81 87 91 91 98 119 122 111 106 108 117 124 125 123 125 121 118 121 123 123 124 127 125 124 128 131 132 132 131 127 123 119 113 110 106 104 102 101 100 102 105 109 111 111 111 106 98 91 83 78 80 86 88 91 96 91 84 80 76 75 84 87 88 90 92 96 98 97 96 94
123 127 126 115 112 109 105 96 96 92 83 83 84 80 82 89 97 96 93 99 111 110 101 104 113 117 119 121 118 118 118 120 125 127 125 123 123 125 127 129 131 134 133 130 126 125 121 114 107 101 99 100 100 100 102 105 107 107 106 103 95 82 78 80 74 71 76 79 86 88 84 84 82 82 86 91 93 95 97 99 100 99 98 97 94
126 130 125 117 112 106 103 97 94 88 86 88 90 89 88 91 95 91 89 96 105 105 101 103 110 114 115 116 115 117 120 123 125 123 121 121 123 125 128 128 131 132 129 128 127 126 121 112 105 101 100 100 98 98 99 101 100 97 95 90 85 78 74 80 78 67 65 63 68 81 85 86 85 87 91 95 97 100 101 102 101 100 98 95 93
132 134 128 119 113 108 105 100 98 95 93 92 93 92 89 88 89 88 89 95 101 104 105 103 105 109 111 114 116 119 119 120 120 117 117 120 122 123 123 125 127 127 126 127 127 124 118 111 106 102 100 100 99 98 96 95 92 87 83 78 81 85 82 85 85 77 72 71 69 81 87 87 90 94 97 100 102 103 103 102 100 98 95 92 90
135 133 127 119 114 112 108 102 102 106 104 99 97 95 90 87 86 87 88 95 99 101 105 103 103 105 109 114 117 117 117 118 118 117 119 119 120 121 120 121 123 123 125 127 126 122 115 109 105 101 98 98 99 99 95 89 84 77 73 75 82 86 87 90 90 87 87 88 87 88 92 95 98 101 103 104 103 103 101 99 97 94 91 89 86
134 127 121 118 117 113 110 108 108 110 105 99 98 94 92 90 88 88 90 95 99 102 105 103 104 106 108 113 115 115 115 116 115 115 115 113 113 114 114 115 117 119 122 126 125 119 112 106 102 100 99 98 97 95 91 84 75 70 73 80 86 86 89 94 94 96 96 98 101 98 100 103 104 105 104 104 103 101 99 96 93 90 88 85 83
128 122 119 119 120 115 110 110 114 116 107 103 100 94 91 89 89 92 96 99 100 103 104 102 104 107 108 111 114 114 115 115 113 111 108 106 106 106 108 109 111 115 120 124 123 118 111 105 102 100 98 96 95 91 86 76 68 71 80 86 90 92 94 96 97 98 98 103 107 105 105 105 105 105 104 102 99 97 95 92 89 86 84 82 79
124 122 123 120 119 115 117 121 123 119 104 102 98 93 91 88 92 98 101 103 104 104 104 104 106 108 110 111 113 115 116 115 112 109 105 102 101 102 104 106 111 115 119 122 121 117 111 106 102 99 95 93 90 86 81 71 69 77 87 90 93 97 97 97 99 99 100 105 107 107 107 105 104 102 101 98 95 94 92 88 86 83 81 78 75
124 122 122 122 120 115 117 123 123 115 101 101 100 96 97 95 96 100 102 103 104 105 105 107 108 110 113 114 114 114 115 114 111 108 104 101 100 99 100 104 108 111 115 116 116 115 110 105 101 99 96 91 85 79 74 71 77 84 92 95 95 98 98 98 98 100 104 107 107 106 104 103 101 99 97 96 93 91 87 85 82 79 76 72 69
127 124 118 116 115 114 115 112 111 111 106 103 102 100 100 101 101 102 102 102 103 104 107 109 111 113 115 115 113 111 112 111 108 106 103 101 98 96 98 103 105 107 109 108 110 111 108 104 100 100 97 92 85 76 68 70 82 89 94 100 99 99 99 100 101 102 105 106 105 103 101 100 98 97 95 93 89 86 82 79 77 74 71 68 65
131 126 120 117 116 117 115 108 100 106 108 103 101 102 101 100 102 103 104 107 107 107 110 113 114 114 114 113 111 109 110 109 107 105 104 103 97 93 96 101 101 101 102 102 106 106 104 102 99 95 91 89 81 75 71 74 86 89 92 101 102 102 103 104 105 106 105 105 103 100 99 97 95 93 89 85 82 79 77 74 72 70 68 65 62
131 126 124 123 124 119 112 109 94 93 99 96 99 104 104 98 97 100 103 110 112 112 113 114 114 114 112 110 108 107 109 111 109 107 104 101 96 93 96 100 100 97 97 99 102 101 98 95 93 89 85 81 74 74 78 81 91 94 96 102 105 107 108 107 107 107 106 103 100 97 94 91 88 85 81 79 77 75 73 72 70 68 65 61 58
130 126 126 125 124 122 118 114 103 91 89 85 85 93 100 100 99 100 103 108 111 113 114 113 113 112 110 108 105 104 107 109 109 107 104 101 98 96 97 99 99 98 98 100 98 95 94 91 89 90 88 81 76 81 90 98 106 108 108 107 108 111 111 111 109 106 102 98 95 92 88 85 82 80 79 78 76 75 73 71 69 65 62 57 55
129 126 127 126 125 124 122 117 112 104 93 89 85 85 92 99 101 101 106 109 109 112 113 112 112 109 108 107 105 104 106 108 109 107 106 105 101 99 98 97 98 97 98 97 94 92 91 91 90 90 90 86 84 91 101 111 113 113 112 111 112 112 112 110 106 102 98 94 90 86 83 82 80 79 79 77 75 73 71 69 66 62 58 54 52
128 128 129 127 126 125 123 119 114 106 98 97 95 92 92 95 100 101 106 111 111 113 113 113 110 107 108 108 106 104 105 107 109 107 107 105 102 102 100 99 101 101 100 97 94 94 93 95 95 94 94 94 95 98 104 113 114 113 113 113 113 111 109 105 101 98 94 89 86 84 82 80 79 76 74 72 68 66 64 62 61 58 56 55 54
129 129 130 129 129 128 125 120 114 108 105 104 102 101 100 100 102 104 106 111 114 117 117 115 110 107 108 107 106 104 104 106 106 104 103 101 100 101 100 100 103 104 105 102 98 98 100 103 102 102 104 105 106 105 107 113 113 112 111 110 109 107 105 102 98 94 91 88 85 83 80 77 72 69 67 65 63 61 60 60 60 59 58 58 57
130 130 131 132 133 132 127 124 120 114 111 110 109 109 107 106 106 107 111 113 116 119 119 116 112 109 109 109 109 106 106 107 107 107 106 105 105 104 104 104 104 103 101 99 99 99 102 104 107 109 110 110 111 111 110 113 116 115 112 111 107 104 102 99 96 91 88 86 84 80 75 71 67 65 63 62 61 60 61 62 62 63 63 62 62
130 131 132 134 135 134 133 131 127 122 119 119 118 116 112 111 111 112 116 116 118 121 120 118 116 114 114 115 115 113 112 113 112 112 111 110 110 108 107 105 103 102 97 94 97 99 100 102 108 113 114 114 115 115 115 117 121 119 116 113 109 106 102 98 93 88 85 82 78 75 72 69 67 65 64 63 63 64 65 65 66 68 67 68 68
131 131 134 136 136 136 137 136 132 128 126 125 124 121 118 116 115 116 117 118 120 122 122 122 121 120 120 119 119 118 118 119 118 115 112 110 109 108 106 103 101 102 100 97 98 102 103 104 109 113 116 116 117 119 118 116 118 118 117 113 109 105 101 96 89 84 83 81 77 76 75 73 71 69 69 68 68 68 69 70 72 73 73 73 72
132 131 135 137 138 139 140 139 136 133 130 129 127 124 122 120 118 119 119 120 120 122 124 124 125 124 123 121 121 123 124 123 121 117 113 112 111 108 105 103 103 104 106 107 108 111 110 109 113 117 116 115 120 123 119 119 120 115 114 112 107 104 100 96 90 84 80 78 79 81 78 76 76 75 74 73 72 72 73 76 77 78 78 77 76
134 132 136 139 140 141 142 141 139 136 134 132 130 127 126 123 122 122 121 121 121 123 126 127 128 128 126 125 124 124 125 124 122 119 117 115 113 109 107 106 107 109 111 111 112 115 115 113 116 119 119 119 125 124 117 124 126 118 117 113 107 106 100 94 92 87 82 77 77 81 79 79 79 77 75 74 74 75 77 80 82 83 83 81 80
138 135 136 139 141 143 144 143 141 140 138 135 133 131 129 129 128 127 126 126 127 128 129 130 131 130 128 127 126 126 126 126 125 123 121 118 114 111 110 109 109 110 109 110 113 116 121 121 121 124 124 122 126 127 127 135 129 121 122 115 110 110 100 95 95 88 84 84 83 83 81 79 81 79 77 78 77 79 82 85 86 85 84 83 82
144 140 138 138 140 142 142 142 142 141 140 139 138 137 136 135 133 131 131 131 132 131 130 130 130 130 129 128 128 130 132 132 130 128 126 123 119 115 114 112 111 109 108 113 117 119 124 124 123 128 128 121 122 129 132 134 124 116 116 114 113 108 99 100 99 91 91 95 91 86 81 77 79 79 78 82 81 80 82 84 85 84 84 84 81
148 146 142 139 139 139 138 138 139 139 138 138 138 140 141 140 138 136 135 135 135 134 133 133 134 134 133 133 133 134 135 135 134 132 130 124 121 118 114 113 112 109 111 116 118 119 122 122 122 130 132 122 117 126 129 125 120 117 115 113 115 108 104 107 102 96 98 101 99 93 88 81 80 81 78 82 81 78 80 82 82 82 81 80 77
152 151 147 144 141 138 137 135 136 135 133 134 134 137 140 141 141 140 140 140 139 141 141 141 141 140 139 138 137 136 136 137 135 135 131 124 122 119 115 112 112 110 110 113 113 115 118 122 124 130 136 126 119 129 129 119 115 118 117 116 116 108 105 104 103 104 100 99 101 95 89 83 80 85 79 74 78 77 77 79 78 76 72 70 71
156 157 154 150 147 143 142 139 137 136 133 132 131 132 136 138 140 141 144 144 143 147 146 147 145 140 140 138 137 137 136 138 136 133 127 122 122 120 116 113 111 110 112 111 109 112 117 123 127 130 136 133 133 142 138 124 111 104 124 126 118 109 108 106 102 104 99 94 99 94 87 83 80 89 84 72 77 80 77 77 72 68 65 62 64
161 161 159 155 153 149 148 146 141 138 135 134 133 133 133 135 138 139 144 147 148 151 148 150 145 138 141 138 138 139 138 140 137 131 126 124 125 122 120 117 112 111 115 114 111 115 121 124 130 131 134 138 141 146 144 137 128 127 145 134 120 111 106 107 99 101 104 95 104 107 98 92 83 88 91 77 75 77 77 76 69 65 62 61 60
165 165 163 159 158 155 153 150 145 141 139 139 139 140 139 138 137 136 140 144 148 149 146 154 146 137 142 140 140 141 139 142 137 133 131 129 129 125 125 123 117 115 115 112 112 118 122 124 132 132 135 141 145 149 149 147 137 135 143 131 121 110 98 110 104 100 106 87 81 95 101 95 77 83 89 78 78 83 77 70 70 68 60 61 64
169 169 168 165 163 161 159 154 149 146 145 147 148 148 148 145 141 138 139 139 141 143 145 154 142 135 142 142 143 145 143 145 141 140 138 135 134 130 129 127 124 124 120 115 115 119 119 123 137 140 140 143 150 156 154 151 139 134 141 131 122 109 105 118 93 80 93 93 74 72 108 105 72 77 81 68 76 84 73 66 70 65 51 57 68
173 174 173 171 168 165 164 159 155 153 152 155 157 157 154 151 148 144 141 141 144 146 148 149 137 134 143 145 148 150 148 148 145 145 144 143 142 137 134 133 133 131 125 123 121 122 120 122 137 144 144 147 157 163 157 155 147 144 151 140 127 111 112 120 91 71 59 87 80 67 98 103 58 61 78 63 63 64 58 48 55 57 47 54 60
178 178 178 176 173 170 168 165 163 161 161 163 164 162 159 157 154 148 149 157 158 152 148 146 140 139 145 146 148 152 153 153 151 151 151 152 151 147 145 143 144 143 138 132 128 127 126 125 134 141 146 150 159 166 164 166 165 157 153 147 140 118 107 116 117 112 90 61 89 77 68 65 41 29 55 57 48 48 43 14 14 30 35 46 45
182 181 181 180 178 175 172 171 171 168 168 169 167 164 161 160 155 148 152 161 157 148 147 150 146 145 147 150 151 152 156 157 157 158 157 159 159 157 155 152 153 156 153 143 139 137 132 129 134 142 156 159 161 173 177 177 174 165 156 162 169 144 112 114 124 127 122 113 110 99 68 196 60 27 23 34 33 43 37 5 356 6 17 32 37
186 184 182 182 181 179 177 177 177 175 175 173 170 166 163 160 155 152 152 154 153 150 153 156 152 152 155 158 157 157 161 163 162 162 161 163 164 163 162 162 163 166 164 154 147 141 132 135 143 147 160 165 163 173 185 189 181 170 167 176 174 163 140 126 121 115 122 121 137 118 1 332 58 30 15 19 27 25 26 15 4 11 15 16 21
189 187 185 184 184 183 182 184 182 182 182 177 172 167 166 162 159 161 160 158 160 160 161 162 163 165 164 161 162 164 168 171 169 169 169 168 168 168 168 170 172 172 171 166 162 155 147 153 160 155 155 159 165 174 182 191 190 181 184 189 180 181 187 161 139 135 148 304 178 121 50 21 356 3 353 33 47 8 11 17 6 22 20 8 13
188 190 190 189 189 187 187 188 188 188 186 180 175 168 166 166 167 168 166 165 167 168 170 170 169 172 169 165 166 168 171 176 177 176 179 179 177 176 174 175 178 177 175 177 180 177 169 168 170 164 158 157 168 182 184 186 191 194 200 199 196 201 204 210 197 173 162 20 25 130 105 88 352 358 332 317 58 9 9 3 352 11 13 8 13
190 192 194 194 193 192 192 192 192 192 188 183 177 171 171 172 174 173 170 172 173 172 174 173 174 177 175 172 172 173 174 177 180 181 185 188 188 187 183 181 182 182 181 183 190 190 179 176 176 171 168 162 165 184 192 192 194 199 208 207 205 210 207 225 251 227 219 89 68 272 202 255 336 28 346 306 312 349 355 346 344 350 354 8 5
192 194 197 198 197 197 197 195 195 195 191 186 180 178 179 179 182 183 179 177 174 173 176 175 177 181 179 178 178 179 181 183 186 189 191 195 196 194 191 189 186 186 187 188 194 196 190 188 186 180 181 180 174 180 190 201 206 206 210 213 213 218 215 219 241 244 254 228 186 266 273 288 292 247 290 295 297 325 335 337 341 328 331 358 356
193 194 197 200 200 200 202 199 198 198 194 190 185 185 188 187 189 189 183 182 179 176 178 178 178 183 185 183 184 187 190 192 194 196 198 201 202 202 200 196 192 194 194 195 197 199 198 196 197 193 191 199 197 191 196 203 211 215 215 214 220 226 225 227 233 234 248 242 228 261 271 294 302 288 301 295 291 311 318 323 331 320 321 338 343
195 195 198 201 201 202 203 201 201 201 198 194 190 190 193 194 196 189 181 186 187 179 176 180 184 187 188 187 191 196 195 197 199 198 200 203 206 211 214 205 200 203 201 201 202 199 201 201 203 204 202 206 206 201 207 205 208 218 219 218 222 230 235 236 241 246 245 244 252 260 266 294 312 302 307 307 302 305 299 305 314 312 317 325 329
Height
3192 3192 3193 3194 3195 3196 3196 3197 3196 3196 3196 3197 3197 3197 3198 3199 3200 3201 3201 3202 3202 3202 3202 3202 3203 3203 3203 3202 3202 3203 3204 3205 3205 3204 3204 3204 3204 3204 3204 3204 3204 3205 3205 3204 3204 3204 3204 3204 3205 3205 3205 3205 3206 3206 3207 3208 3208 3208 3209 3209 3209 3210 3210 3210 3210 3210 3210 3210 3210 3210 3210 3210 3210 3210 3210 3209 3209 3209 3210 3210 3210 3210 3210 3210 3210
3193 3194 3194 3195 3196 3197 3197 3198 3198 3198 3198 3198 3198 3198 3199 3199 3200 3201 3201 3201 3202 3203 3202 3203 3203 3203 3203 3203 3203 3203 3204 3205 3205 3204 3204 3204 3204 3205 3205 3205 3205 3205 3205 3205 3205 3205 3205 3205 3205 3206 3206 3206 3207 3208 3208 3209 3209 3210 3210 3210 3210 3211 3211 3211 3211 3211 3211 3211 3211 3211 3211 3211 3211 3211 3211 3211 3210 3210 3211 3211 3211 3211 3211 3211 3211
3194 3195 3196 3196 3197 3198 3199 3199 3199 3199 3199 3200 3199 3199 3199 3200 3200 3201 3201 3202 3202 3203 3203 3203 3203 3203 3203 3203 3203 3203 3203 3204 3204 3204 3204 3205 3205 3206 3206 3206 3206 3206 3205 3205 3206 3206 3206 3206 3206 3207 3207 3208 3208 3209 3209 3210 3210 3211 3211 3211 3211 3212 3212 3212 3212 3212 3212 3212 3212 3212 3212 3212 3212 3213 3212 3212 3212 3212 3212 3212 3212 3212 3212 3212 3212
3195 3196 3197 3197 3198 3199 3199 3200 3200 3200 3201 3201 3201 3200 3200 3200 3201 3201 3202 3202 3203 3203 3204 3204 3204 3204 3204 3203 3203 3203 3203 3204 3204 3205 3205 3205 3206 3206 3206 3206 3206 3206 3205 3205 3206 3207 3207 3207 3207 3208 3208 3209 3209 3210 3211 3211 3212 3212 3212 3212 3213 3213 3213 3213 3213 3213 3213 3213 3213 3213 3214 3214 3214 3214 3213 3213 3213 3213 3213 3213 3213 3213 3213 3213 3213
3196 3197 3198 3198 3199 3199 3200 3200 3201 3201 3202 3201 3201 3201 3201 3201 3202 3203 3203 3204 3204 3204 3204 3203 3203 3203 3203 3203 3203 3203 3204 3204 3204 3205 3205 3206 3207 3207 3207 3206 3207 3207 3207 3208 3208 3208 3207 3208 3208 3209 3209 3210 3211 3211 3212 3212 3213 3213 3214 3214 3214 3214 3214 3214 3214 3215 3215 3214 3214 3214 3215 3215 3215 3214 3214 3214 3214 3214 3214 3214 3214 3214 3214 3214 3214
3197 3198 3199 3199 3199 3200 3200 3201 3202 3202 3202 3202 3201 3201 3201 3202 3203 3204 3204 3204 3204 3203 3203 3202 3203 3202 3203 3203 3204 3204 3204 3204 3204 3205 3205 3206 3207 3208 3208 3207 3208 3209 3209 3209 3209 3209 3208 3209 3209 3210 3210 3211 3212 3212 3213 3213 3214 3214 3215 3215 3215 3215 3215 3215 3216 3215 3215 3215 3215 3216 3216 3216 3216 3216 3216 3215 3215 3215 3214 3214 3215 3215 3215 3214 3214
3198 3199 3200 3200 3200 3201 3201 3201 3202 3201 3202 3202 3202 3201 3201 3202 3204 3205 3204 3203 3203 3203 3203 3202 3202 3203 3204 3204 3204 3204 3205 3205 3205 3205 3206 3206 3207 3208 3208 3208 3209 3209 3209 3209 3209 3210 3210 3209 3210 3211 3211 3212 3212 3213 3214 3214 3215 3215 3215 3216 3216 3216 3216 3217 3217 3216 3216 3217 3217 3217 3216 3216 3217 3217 3217 3216 3216 3216 3215 3215 3215 3215 3215 3215 3214
3200 3200 3201 3202 3202 3202 3202 3202 3203 3202 3203 3203 3203 3203 3203 3204 3205 3205 3204 3203 3203 3204 3203 3203 3203 3203 3204 3205 3205 3205 3205 3205 3205 3206 3206 3207 3206 3206 3207 3208 3208 3208 3208 3209 3210 3211 3211 3211 3211 3212 3212 3213 3214 3214 3215 3215 3216 3216 3216 3217 3217 3217 3217 3218 3218 3217 3217 3217 3217 3217 3217 3217 3217 3217 3217 3217 3217 3217 3216 3216 3216 3216 3216 3215 3215
3201 3201 3202 3203 3203 3204 3204 3204 3204 3204 3204 3204 3203 3204 3204 3205 3206 3206 3205 3204 3204 3205 3204 3204 3204 3204 3204 3205 3205 3205 3205 3206 3206 3206 3206 3207 3206 3205 3206 3207 3208 3207 3208 3209 3210 3211 3212 3212 3213 3213 3214 3214 3214 3215 3216 3216 3217 3217 3217 3218 3218 3218 3218 3219 3219 3219 3219 3218 3218 3218 3218 3219 3218 3218 3218 3218 3218 3217 3217 3217 3217 3216 3216 3216 3216
3202 3202 3203 3204 3204 3204 3205 3205 3205 3205 3205 3205 3205 3205 3206 3206 3207 3207 3206 3205 3205 3205 3205 3205 3205 3204 3204 3205 3205 3205 3205 3206 3206 3206 3206 3207 3207 3207 3207 3209 3209 3209 3210 3211 3211 3212 3213 3213 3214 3214 3215 3215 3216 3216 3217 3217 3218 3218 3218 3219 3219 3219 3220 3220 3220 3220 3220 3220 3220 3220 3220 3220 3219 3219 3219 3219 3218 3218 3218 3218 3217 3217 3217 3217 3217
3203 3203 3204 3204 3204 3205 3205 3205 3205 3205 3206 3206 3205 3206 3207 3208 3208 3208 3207 3206 3206 3205 3205 3205 3205 3205 3205 3205 3206 3206 3206 3206 3207 3207 3207 3208 3208 3209 3209 3210 3211 3211 3212 3213 3213 3213 3214 3215 3215 3216 3216 3216 3217 3217 3218 3218 3219 3219 3219 3220 3220 3221 3221 3221 3221 3222 3222 3221 3222 3221 3221 3221 3220 3220 3220 3219 3219 3219 3218 3218 3218 3218 3218 3218 3218
3203 3204 3204 3204 3205 3205 3206 3206 3205 3206 3206 3206 3206 3207 3208 3208 3208 3208 3207 3206 3205 3205 3205 3205 3205 3205 3206 3206 3206 3206 3207 3207 3207 3208 3208 3209 3209 3210 3211 3212 3212 3213 3213 3214 3214 3215 3216 3216 3217 3217 3217 3218 3218 3218 3219 3219 3220 3220 3220 3221 3221 3222 3222 3222 3222 3223 3223 3223 3223 3222 3222 3221 3221 3221 3221 3220 3220 3219 3219 3219 3219 3219 3219 3219 3219
3204 3205 3205 3205 3205 3206 3206 3206 3206 3206 3207 3207 3207 3207 3208 3208 3208 3207 3207 3206 3205 3205 3205 3205 3206 3206 3206 3206 3206 3207 3207 3208 3208 3208 3209 3210 3210 3211 3212 3212 3213 3214 3215 3215 3216 3217 3217 3218 3218 3219 3219 3219 3219 3220 3221 3221 3221 3222 3222 3222 3223 3223 3224 3224 3224 3224 3224 3224 3223 3223 3222 3222 3222 3221 3221 3221 3221 3220 3220 3220 3220 3220 3220 3220 3220
3205 3206 3206 3206 3206 3206 3206 3207 3207 3207 3207 3207 3207 3208 3209 3209 3208 3208 3207 3206 3205 3205 3206 3206 3206 3206 3207 3207 3207 3208 3209 3209 3210 3210 3210 3211 3211 3213 3214 3214 3215 3216 3217 3217 3218 3219 3219 3220 3220 3220 3221 3221 3221 3221 3222 3223 3223 3223 3224 3224 3224 3225 3225 3225 3225 3225 3225 3225 3224 3223 3223 3223 3222 3222 3222 3222 3221 3221 3221 3221 3221 3222 3222 3222 3222
3206 3206 3206 3206 3207 3207 3207 3207 3208 3208 3208 3208 3209 3210 3210 3210 3209 3208 3207 3206 3206 3206 3207 3207 3207 3207 3207 3208 3208 3209 3210 3211 3211 3212 3212 3212 3213 3214 3216 3216 3217 3217 3218 3219 3220 3220 3221 3221 3221 3222 3222 3222 3222 3223 3224 3225 3225 3225 3225 3225 3225 3226 3226 3225 3226 3226 3226 3225 3225 3224 3224 3223 3223 3223 3223 3223 3223 3223 3223 3223 3223 3223 3223 3224 3224
3206 3206 3206 3207 3207 3207 3208 3208 3208 3208 3208 3209 3210 3210 3210 3210 3209 3209 3207 3207 3207 3208 3208 3208 3208 3208 3209 3209 3210 3211 3211 3212 3213 3213 3214 3214 3215 3216 3217 3218 3218 3219 3220 3221 3221 3221 3222 3222 3223 3223 3224 3224 3224 3225 3226 3226 3226 3227 3227 3226 3226 3226 3227 3226 3226 3227 3226 3226 3226 3225 3225 3224 3224 3224 3224 3224 3224 3224 3225 3225 3225 3225 3225 3225 3225
3206 3207 3207 3207 3208 3208 3208 3208 3209 3208 3209 3211 3210 3210 3211 3210 3210 3209 3208 3208 3209 3209 3209 3209 3209 3210 3210 3211 3211 3212 3213 3214 3214 3215 3216 3216 3217 3217 3218 3219 3220 3220 3221 3222 3223 3223 3223 3224 3224 3225 3225 3225 3226 3226 3227 3228 3228 3228 3228 3227 3227 3227 3227 3227 3227 3227 3227 3228 3227 3226 3226 3226 3226 3226 3226 3226 3226 3226 3226 3227 3227 3227 3227 3227 3227
3207 3207 3208 3208 3208 3209 3209 3209 3209 3208 3210 3212 3211 3211 3211 3211 3211 3210 3210 3209 3210 3210 3211 3210 3211 3212 3212 3213 3213 3214 3215 3216 3216 3217 3218 3218 3219 3219 3220 3221 3221 3222 3223 3223 3224 3225 3225 3225 3226 3226 3227 3227 3228 3228 3229 3229 3229 3229 3229 3229 3228 3228 3228 3228 3228 3229 3228 3229 3228 3228 3227 3227 3227 3227 3228 3228 3228 3228 3228 3228 3228 3229 3229 3229 3229
3207 3208 3208 3208 3209 3209 3210 3210 3210 3210 3211 3212 3212 3212 3212 3212 3212 3211 3211 3211 3211 3212 3212 3212 3213 3213 3214 3214 3215 3216 3217 3218 3218 3219 3219 3220 3221 3221 3222 3222 3223 3224 3224 3225 3226 3226 3227 3227 3227 3228 3228 3229 3229 3230 3230 3230 3230 3230 3230 3230 3229 3229 3229 3229 3230 3230 3230 3230 3230 3229 3229 3229 3229 3229 3230 3230 3230 3230 3230 3230 3230 3230 3231 3230 3230
3208 3209 3209 3209 3209 3209 3210 3211 3211 3211 3212 3213 3213 3213 3212 3212 3212 3212 3212 3212 3213 3214 3214 3214 3215 3215 3216 3217 3217 3219 3219 3220 3220 3221 3222 3222 3223 3223 3224 3224 3225 3225 3226 3227 3227 3228 3228 3229 3229 3230 3230 3230 3231 3231 3231 3231 3232 3231 3231 3231 3231 3231 3231 3231 3231 3231 3231 3231 3231 3231 3231 3231 3231 3232 3232 3232 3232 3232 3232 3232 3232 3232 3232 3232 3232
3209 3210 3210 3210 3210 3210 3210 3211 3212 3212 3212 3214 3214 3213 3213 3214 3214 3214 3214 3214 3215 3216 3217 3217 3217 3218 3218 3219 3220 3221 3222 3222 3222 3223 3223 3224 3225 3225 3226 3226 3226 3227 3228 3228 3229 3230 3230 3230 3231 3231 3232 3232 3232 3233 3233 3233 3233 3233 3233 3232 3232 3232 3233 3233 3233 3233 3233 3233 3233 3233 3233 3233 3233 3234 3234 3234 3234 3234 3234 3234 3234 3234 3234 3234 3234
3210 3210 3210 3210 3210 3210 3210 3210 3211 3213 3213 3214 3215 3214 3214 3215 3216 3216 3215 3216 3217 3218 3219 3220 3220 3221 3221 3221 3222 3223 3224 3224 3224 3225 3225 3226 3226 3227 3227 3228 3228 3229 3229 3230 3230 3231 3231 3232 3233 3233 3233 3234 3234 3234 3234 3234 3234 3234 3234 3234 3234 3234 3234 3234 3235 3235 3235 3235 3235 3235 3235 3235 3236 3236 3236 3236 3236 3236 3236 3236 3236 3236 3236 3235 3235
3211 3212 3211 3211 3211 3211 3212 3210 3210 3212 3213 3213 3216 3217 3215 3215 3216 3217 3217 3218 3219 3220 3221 3222 3222 3223 3223 3223 3224 3225 3225 3226 3227 3227 3227 3228 3228 3229 3229 3229 3230 3230 3231 3231 3232 3233 3233 3234 3234 3235 3235 3235 3235 3235 3235 3236 3236 3236 3235 3235 3235 3235 3236 3236 3236 3237 3237 3237 3237 3237 3237 3238 3238 3238 3238 3238 3238 3238 3238 3238 3238 3237 3237 3237 3236
3212 3212 3213 3213 3213 3213 3213 3212 3211 3212 3213 3213 3215 3217 3218 3217 3217 3218 3219 3219 3220 3222 3224 3224 3225 3225 3225 3226 3226 3227 3227 3228 3229 3229 3230 3230 3230 3231 3231 3232 3232 3232 3233 3234 3235 3235 3235 3235 3235 3236 3236 3236 3236 3236 3237 3237 3237 3237 3237 3237 3237 3237 3238 3238 3238 3239 3239 3239 3239 3239 3239 3240 3240 3240 3240 3240 3240 3240 3240 3239 3239 3238 3238 3238 3237
3213 3213 3214 3214 3214 3214 3214 3214 3214 3214 3214 3214 3214 3216 3220 3220 3219 3220 3221 3221 3221 3223 3225 3226 3227 3228 3228 3228 3229 3229 3229 3230 3231 3232 3232 3232 3232 3233 3233 3234 3234 3234 3235 3236 3236 3236 3236 3236 3236 3237 3237 3237 3237 3238 3239 3239 3238 3239 3239 3239 3239 3239 3240 3240 3240 3240 3241 3241 3241 3241 3241 3242 3242 3242 3242 3242 3242 3241 3241 3241 3240 3239 3239 3239 3238
3214 3214 3215 3215 3215 3216 3216 3216 3216 3216 3216 3216 3216 3218 3220 3222 3222 3222 3223 3224 3224 3224 3226 3227 3229 3229 3230 3231 3231 3231 3232 3232 3233 3233 3234 3234 3234 3235 3235 3235 3235 3235 3236 3237 3237 3237 3237 3238 3237 3237 3237 3238 3239 3240 3240 3240 3240 3240 3240 3240 3241 3241 3241 3242 3242 3242 3243 3243 3243 3243 3243 3243 3244 3244 3244 3243 3243 3243 3242 3242 3241 3241 3240 3240 3239
3215 3215 3216 3216 3217 3217 3217 3217 3217 3218 3219 3219 3220 3220 3221 3223 3224 3224 3225 3225 3226 3227 3227 3228 3230 3230 3231 3232 3233 3234 3234 3234 3235 3235 3236 3236 3236 3236 3236 3236 3237 3237 3238 3238 3238 3238 3238 3239 3238 3238 3238 3239 3241 3241 3242 3241 3241 3242 3242 3242 3243 3243 3243 3244 3244 3244 3245 3245 3245 3245 3245 3245 3245 3245 3245 3245 3244 3244 3243 3243 3242 3242 3241 3241 3240
3216 3216 3217 3217 3218 3219 3219 3219 3219 3220 3221 3221 3222 3222 3223 3224 3226 3226 3227 3227 3228 3229 3229 3230 3231 3231 3232 3233 3234 3235 3235 3236 3236 3237 3237 3237 3237 3238 3238 3238 3239 3239 3239 3239 3239 3239 3239 3240 3240 3240 3240 3241 3242 3243 3243 3243 3243 3244 3244 3244 3245 3245 3245 3246 3246 3246 3246 3247 3247 3247 3247 3247 3247 3246 3246 3246 3245 3245 3244 3244 3244 3243 3243 3242 3241
3217 3217 3218 3219 3219 3220 3220 3221 3221 3222 3222 3223 3224 3224 3225 3226 3227 3228 3229 3229 3230 3231 3231 3232 3232 3233 3234 3234 3235 3236 3237 3238 3238 3238 3238 3239 3239 3239 3240 3240 3240 3240 3240 3240 3240 3240 3240 3240 3241 3241 3242 3242 3243 3244 3245 3245 3245 3246 3246 3246 3247 3247 3247 3247 3248 3248 3248 3248 3248 3248 3248 3248 3248 3247 3247 3247 3247 3246 3246 3245 3245 3244 3244 3243 3243
3218 3218 3219 3220 3220 3221 3222 3223 3223 3223 3224 3225 3225 3226 3226 3227 3228 3229 3230 3231 3232 3233 3233 3234 3234 3235 3235 3236 3237 3238 3239 3239 3240 3240 3240 3240 3240 3241 3241 3241 3241 3241 3241 3240 3241 3241 3241 3241 3242 3242 3243 3244 3244 3245 3246 3247 3247 3247 3248 3248 3248 3249 3249 3249 3250 3250 3250 3250 3250 3250 3249 3249 3249 3249 3248 3248 3248 3247 3247 3247 3246 3246 3245 3244 3244
3219 3219 3220 3221 3221 3222 3223 3224 3225 3225 3225 3226 3227 3227 3228 3229 3229 3230 3231 3232 3233 3234 3235 3235 3236 3236 3237 3237 3238 3239 3240 3240 3241 3241 3241 3241 3242 3242 3242 3242 3242 3242 3242 3242 3242 3242 3242 3243 3244 3244 3244 3245 3246 3247 3247 3248 3249 3249 3250 3250 3250 3251 3251 3251 3251 3252 3251 3251 3251 3251 3250 3250 3250 3250 3250 3249 3249 3249 3248 3248 3247 3247 3246 3246 3246
3220 3220 3221 3221 3222 3223 3224 3225 3226 3226 3227 3227 3228 3229 3229 3230 3231 3232 3233 3234 3234 3235 3236 3237 3237 3238 3238 3239 3239 3240 3241 3242 3242 3242 3242 3243 3243 3243 3243 3243 3243 3243 3243 3243 3244 3244 3244 3245 3245 3245 3246 3246 3247 3248 3249 3250 3250 3251 3252 3252 3252 3252 3253 3252 3253 3254 3253 3253 3252 3252 3252 3251 3251 3251 3251 3251 3250 3250 3250 3249 3249 3248 3248 3248 3247
3220 3221 3222 3222 3223 3224 3225 3226 3227 3228 3228 3229 3230 3230 3231 3232 3232 3233 3234 3235 3235 3236 3237 3238 3239 3239 3240 3240 3241 3241 3242 3242 3243 3243 3244 3244 3244 3244 3245 3245 3245 3245 3245 3245 3245 3246 3246 3246 3246 3247 3247 3248 3249 3249 3250 3251 3252 3252 3253 3254 3254 3254 3254 3254 3255 3255 3254 3254 3254 3253 3253 3253 3252 3252 3252 3252 3252 3252 3251 3251 3251 3250 3250 3250 3249
3221 3222 3223 3224 3224 3225 3226 3227 3228 3229 3229 3230 3231 3231 3232 3233 3234 3234 3235 3236 3237 3238 3238 3239 3240 3241 3241 3242 3242 3242 3243 3244 3244 3245 3245 3245 3245 3246 3246 3246 3246 3246 3246 3246 3246 3247 3247 3247 3247 3248 3248 3248 3250 3251 3252 3253 3253 3253 3254 3255 3255 3255 3255 3256 3256 3256 3256 3256 3255 3255 3255 3254 3254 3253 3253 3253 3253 3253 3253 3253 3253 3252 3252 3251 3251
3222 3223 3224 3225 3225 3226 3227 3228 3228 3229 3230 3231 3232 3232 3233 3234 3235 3236 3236 3237 3238 3239 3240 3240 3241 3242 3242 3243 3243 3244 3245 3245 3246 3246 3246 3246 3246 3247 3247 3247 3247 3247 3247 3248 3248 3248 3248 3248 3248 3249 3249 3249 3251 3252 3253 3254 3254 3255 3255 3256 3256 3257 3257 3257 3257 3257 3257 3257 3256 3256 3256 3257 3256 3254 3254 3253 3253 3254 3255 3254 3254 3254 3254 3253 3253
3223 3223 3224 3225 3226 3227 3228 3228 3229 3230 3231 3232 3233 3233 3234 3235 3236 3237 3238 3238 3239 3240 3240 3241 3242 3243 3243 3244 3245 3245 3246 3247 3247 3247 3247 3247 3247 3248 3248 3248 3248 3249 3248 3248 3249 3249 3249 3249 3249 3250 3251 3250 3252 3254 3254 3255 3256 3256 3257 3257 3258 3258 3258 3259 3259 3259 3258 3258 3258 3258 3257 3258 3258 3256 3255 3255 3254 3255 3256 3256 3256 3256 3256 3255 3255
3223 3224 3225 3226 3227 3228 3228 3229 3230 3231 3232 3233 3233 3234 3235 3236 3237 3238 3239 3239 3240 3241 3241 3242 3243 3244 3244 3245 3246 3246 3247 3247 3247 3248 3248 3248 3248 3249 3249 3249 3249 3250 3249 3249 3249 3249 3250 3250 3250 3251 3252 3251 3253 3255 3256 3257 3258 3258 3258 3259 3259 3259 3259 3260 3260 3260 3260 3259 3259 3259 3258 3259 3259 3258 3257 3257 3257 3256 3257 3257 3257 3257 3257 3257 3256
3224 3225 3226 3227 3227 3228 3229 3230 3231 3232 3233 3233 3234 3235 3236 3237 3238 3238 3239 3240 3241 3242 3242 3242 3243 3244 3245 3245 3246 3247 3247 3247 3248 3248 3248 3248 3249 3249 3250 3250 3250 3251 3250 3250 3250 3251 3251 3251 3251 3252 3253 3253 3253 3255 3256 3257 3259 3260 3260 3260 3260 3260 3260 3261 3261 3261 3261 3261 3261 3260 3260 3260 3259 3259 3259 3259 3259 3258 3258 3258 3259 3259 3259 3258 3258
3224 3225 3226 3227 3228 3229 3230 3231 3232 3233 3234 3234 3235 3236 3237 3238 3238 3239 3240 3240 3241 3242 3242 3242 3243 3245 3245 3246 3247 3247 3247 3248 3248 3249 3249 3249 3250 3250 3250 3251 3251 3251 3252 3251 3251 3252 3252 3252 3252 3253 3254 3254 3255 3256 3257 3258 3259 3260 3260 3261 3262 3262 3261 3262 3262 3262 3262 3262 3262 3262 3262 3261 3261 3261 3261 3261 3261 3260 3260 3259 3259 3259 3259 3259 3259
3225 3226 3227 3228 3229 3230 3231 3232 3233 3234 3235 3235 3236 3237 3237 3238 3239 3240 3240 3241 3241 3242 3242 3243 3244 3245 3246 3246 3247 3247 3248 3249 3249 3250 3250 3250 3250 3251 3251 3251 3252 3252 3253 3253 3253 3253 3253 3254 3254 3254 3255 3255 3256 3257 3258 3259 3259 3260 3261 3262 3262 3262 3263 3263 3263 3263 3263 3263 3264 3263 3263 3263 3263 3263 3263 3263 3262 3262 3261 3261 3260 3259 3259 3260 3260
3225 3226 3227 3228 3229 3230 3231 3232 3233 3234 3235 3236 3236 3237 3238 3238 3239 3240 3241 3242 3242 3243 3243 3243 3244 3245 3246 3247 3248 3248 3249 3249 3250 3250 3251 3251 3251 3252 3252 3252 3252 3253 3253 3254 3254 3254 3254 3255 3254 3255 3256 3257 3257 3258 3259 3260 3260 3261 3262 3263 3263 3263 3264 3264 3264 3264 3264 3265 3265 3265 3265 3265 3265 3265 3265 3264 3264 3263 3262 3262 3261 3260 3259 3259 3259
3225 3227 3228 3229 3230 3231 3232 3233 3234 3235 3235 3236 3237 3237 3238 3238 3239 3240 3241 3242 3243 3243 3244 3244 3245 3246 3247 3248 3248 3249 3250 3250 3251 3251 3251 3252 3252 3252 3253 3253 3253 3253 3254 3254 3255 3255 3255 3256 3255 3256 3257 3257 3258 3259 3260 3261 3261 3262 3263 3263 3264 3264 3264 3264 3264 3265 3266 3266 3266 3267 3266 3266 3266 3266 3265 3265 3265 3264 3263 3262 3262 3261 3260 3259 3259
3226 3227 3228 3229 3230 3231 3232 3233 3234 3235 3235 3236 3237 3237 3238 3238 3239 3240 3241 3242 3243 3244 3244 3245 3246 3247 3248 3249 3249 3250 3250 3251 3251 3252 3252 3252 3253 3253 3253 3254 3254 3254 3254 3255 3255 3256 3256 3256 3257 3257 3258 3258 3259 3260 3260 3261 3262 3263 3263 3264 3264 3264 3265 3265 3266 3266 3267 3267 3267 3268 3268 3267 3266 3266 3265 3264 3265 3265 3264 3264 3263 3262 3261 3260 3261
3226 3227 3228 3230 3231 3232 3233 3233 3234 3235 3236 3236 3237 3238 3239 3239 3239 3240 3241 3242 3243 3244 3245 3246 3247 3248 3249 3249 3250 3250 3251 3251 3252 3252 3252 3253 3253 3253 3254 3254 3254 3255 3255 3255 3256 3256 3257 3257 3257 3258 3259 3259 3259 3261 3261 3262 3263 3263 3263 3264 3264 3264 3264 3265 3267 3267 3267 3268 3269 3269 3269 3267 3267 3266 3265 3265 3265 3265 3265 3265 3265 3264 3264 3262 3262
3226 3227 3228 3230 3231 3232 3233 3234 3234 3235 3236 3237 3238 3238 3239 3240 3240 3241 3242 3243 3244 3245 3246 3247 3247 3248 3249 3250 3250 3250 3251 3251 3252 3252 3253 3253 3253 3254 3254 3254 3255 3255 3256 3256 3256 3257 3257 3257 3258 3258 3259 3259 3259 3261 3262 3263 3263 3264 3264 3264 3265 3265 3265 3266 3267 3267 3267 3268 3269 3269 3268 3268 3268 3268 3267 3266 3266 3266 3265 3265 3265 3265 3265 3264 3263
3226 3227 3228 3230 3231 3232 3233 3234 3235 3236 3236 3237 3238 3239 3239 3240 3241 3241 3242 3243 3244 3245 3246 3247 3248 3248 3249 3249 3250 3251 3251 3252 3252 3253 3253 3253 3254 3254 3254 3255 3255 3255 3256 3256 3256 3257 3257 3257 3258 3258 3259 3259 3260 3260 3261 3263 3264 3264 3265 3265 3265 3266 3266 3266 3267 3268 3268 3268 3268 3269 3269 3268 3268 3268 3267 3267 3267 3267 3266 3265 3265 3265 3265 3265 3264
3226 3227 3228 3229 3230 3232 3233 3234 3235 3236 3237 3238 3238 3239 3239 3240 3240 3241 3242 3243 3244 3245 3246 3246 3247 3248 3249 3249 3250 3251 3251 3252 3252 3253 3253 3254 3254 3254 3255 3255 3255 3255 3256 3256 3257 3257 3257 3258 3259 3259 3259 3260 3260 3261 3261 3262 3264 3264 3265 3265 3266 3266 3266 3267 3267 3268 3268 3268 3268 3269 3269 3269 3269 3269 3268 3267 3267 3267 3267 3266 3265 3265 3265 3265 3264
3226 3227 3228 3229 3230 3231 3233 3234 3235 3236 3237 3238 3239 3239 3240 3240 3240 3241 3243 3243 3244 3245 3245 3246 3248 3248 3249 3249 3250 3251 3251 3252 3252 3253 3254 3254 3254 3255 3255 3255 3255 3256 3256 3257 3257 3257 3258 3258 3259 3259 3260 3260 3261 3261 3262 3262 3263 3264 3264 3265 3266 3266 3267 3267 3268 3268 3268 3268 3268 3268 3269 3269 3269 3269 3269 3268 3268 3268 3268 3267 3266 3266 3265 3264 3264
3225 3226 3227 3229 3230 3231 3232 3233 3235 3236 3237 3238 3239 3240 3240 3241 3241 3241 3242 3243 3244 3245 3245 3246 3247 3248 3249 3250 3250 3251 3251 3252 3252 3253 3253 3254 3254 3255 3255 3255 3255 3256 3256 3257 3257 3257 3258 3258 3259 3259 3260 3260 3261 3261 3262 3262 3263 3263 3264 3265 3265 3266 3267 3267 3268 3268 3268 3269 3268 3268 3268 3268 3268 3269 3269 3268 3268 3267 3267 3267 3266 3266 3265 3264 3264
3224 3226 3227 3228 3229 3231 3232 3233 3234 3236 3237 3238 3239 3240 3240 3241 3241 3241 3242 3243 3244 3245 3246 3246 3247 3248 3249 3250 3250 3251 3251 3252 3252 3253 3253 3254 3254 3254 3255 3255 3255 3255 3256 3256 3257 3257 3258 3258 3259 3259 3260 3260 3261 3261 3261 3262 3263 3263 3264 3265 3266 3266 3266 3267 3268 3268 3268 3269 3269 3268 3267 3267 3267 3267 3268 3268 3267 3267 3267 3266 3265 3265 3265 3264 3263
3223 3225 3226 3227 3229 3230 3231 3232 3234 3235 3237 3238 3239 3240 3240 3241 3241 3241 3242 3243 3244 3245 3246 3247 3248 3249 3249 3250 3250 3250 3251 3251 3252 3253 3253 3253 3253 3254 3254 3255 3255 3255 3256 3256 3257 3257 3258 3258 3258 3259 3259 3260 3260 3261 3261 3262 3263 3263 3264 3264 3265 3266 3266 3267 3267 3267 3268 3268 3268 3267 3267 3267 3267 3267 3267 3267 3266 3266 3266 3266 3266 3265 3264 3263 3263